TimeCST,TemperatureF,Dew PointF,Humidity,Sea Level PressureIn,VisibilityMPH,Wind Direction,Wind SpeedMPH,Gust SpeedMPH,PrecipitationIn,Events,Conditions,WindDirDegrees,DateUTC
12:15 AM,13.6,5.0,68,30.31,10.0,North,4.6,-,N/A,,Clear,350,2014-02-12 06:15:00
12:35 AM,13.1,4.8,70,30.30,7.0,North,3.5,-,N/A,,Clear,360,2014-02-12 06:35:00
12:55 AM,13.3,4.8,69,30.29,7.0,North,4.6,-,N/A,,Clear,360,2014-02-12 06:55:00
1:15 AM,13.1,4.8,70,30.28,7.0,North,4.6,-,N/A,,Clear,10,2014-02-12 07:15:00
1:35 AM,13.1,4.8,70,30.27,7.0,North,4.6,-,N/A,,Clear,10,2014-02-12 07:35:00
1:55 AM,12.7,4.6,70,30.26,7.0,Calm,Calm,-,N/A,,Clear,0,2014-02-12 07:55:00
2:15 AM,12.0,4.3,71,30.26,7.0,Calm,Calm,-,N/A,,Clear,0,2014-02-12 08:15:00
2:35 AM,12.9,5.5,72,30.25,7.0,NNE,3.5,-,N/A,,Clear,20,2014-02-12 08:35:00
2:55 AM,12.2,4.8,72,30.24,7.0,Calm,Calm,-,N/A,,Clear,0,2014-02-12 08:55:00
3:15 AM,12.7,5.9,74,30.23,7.0,North,3.5,-,N/A,,Clear,10,2014-02-12 09:15:00
3:35 AM,13.1,6.4,75,30.23,7.0,NNE,3.5,-,N/A,,Clear,30,2014-02-12 09:35:00
3:55 AM,11.3,5.0,76,30.23,7.0,Calm,Calm,-,N/A,,Clear,0,2014-02-12 09:55:00
4:15 AM,11.5,5.5,77,30.22,7.0,Calm,Calm,-,N/A,,Clear,0,2014-02-12 10:15:00
4:35 AM,12.4,6.4,77,30.22,7.0,Calm,Calm,-,N/A,,Clear,0,2014-02-12 10:35:00
4:55 AM,12.6,6.8,78,30.21,7.0,Calm,Calm,-,N/A,,Clear,0,2014-02-12 10:55:00
5:15 AM,12.6,6.6,77,30.22,7.0,North,5.8,-,N/A,,Clear,350,2014-02-12 11:15:00
5:35 AM,12.6,6.8,78,30.21,7.0,North,3.5,-,N/A,,Clear,10,2014-02-12 11:35:00
5:55 AM,12.2,6.4,78,30.21,7.0,NNE,3.5,-,N/A,,Clear,20,2014-02-12 11:55:00
6:15 AM,11.7,6.4,80,30.20,5.0,North,3.5,-,N/A,,Haze,10,2014-02-12 12:15:00
6:35 AM,12.0,6.4,78,30.20,7.0,North,3.5,-,N/A,,Clear,10,2014-02-12 12:35:00
6:55 AM,12.9,6.8,77,30.21,7.0,NNE,4.6,-,N/A,,Clear,20,2014-02-12 12:55:00
7:15 AM,12.6,6.8,78,30.22,7.0,North,4.6,-,N/A,,Clear,360,2014-02-12 13:15:00
7:35 AM,13.1,6.6,75,30.22,7.0,NNE,3.5,-,N/A,,Clear,20,2014-02-12 13:35:00
7:55 AM,14.4,7.2,73,30.23,7.0,Calm,Calm,-,N/A,,Clear,0,2014-02-12 13:55:00
8:15 AM,16.2,7.9,70,30.22,7.0,NE,4.6,-,N/A,,Clear,40,2014-02-12 14:15:00
8:35 AM,17.8,8.6,67,30.20,10.0,East,5.8,-,N/A,,Clear,80,2014-02-12 14:35:00
8:55 AM,18.7,9.3,67,30.21,7.0,Calm,Calm,-,N/A,,Clear,0,2014-02-12 14:55:00
9:15 AM,20.3,9.9,64,30.20,10.0,NE,3.5,-,N/A,,Clear,50,2014-02-12 15:15:00
9:35 AM,21.6,10.6,63,30.21,10.0,Calm,Calm,-,N/A,,Clear,0,2014-02-12 15:35:00
9:55 AM,23.4,11.1,60,30.20,10.0,NNW,5.8,-,N/A,,Clear,340,2014-02-12 15:55:00
10:15 AM,24.6,11.7,58,30.19,10.0,NNE,5.8,-,N/A,,Clear,30,2014-02-12 16:15:00
10:35 AM,26.2,12.6,56,30.18,10.0,North,4.6,-,N/A,,Clear,360,2014-02-12 16:35:00
10:55 AM,27.3,13.1,55,30.16,10.0,NNW,4.6,-,N/A,,Clear,340,2014-02-12 16:55:00
11:15 AM,28.2,13.5,54,30.15,10.0,Calm,Calm,-,N/A,,Clear,0,2014-02-12 17:15:00
11:35 AM,30.0,14.0,51,30.14,10.0,North,3.5,-,N/A,,Clear,360,2014-02-12 17:35:00
11:55 AM,30.7,14.2,50,30.14,10.0,NNW,3.5,-,N/A,,Clear,340,2014-02-12 17:55:00
12:15 PM,32.0,14.2,48,30.12,10.0,Calm,Calm,-,N/A,,Clear,0,2014-02-12 18:15:00
12:35 PM,33.3,14.0,45,30.11,10.0,Calm,Calm,-,N/A,,Clear,0,2014-02-12 18:35:00
12:55 PM,35.2,13.6,41,30.09,10.0,NE,3.5,-,N/A,,Clear,50,2014-02-12 18:55:00
1:15 PM,35.6,13.5,40,30.07,10.0,North,4.6,-,N/A,,Clear,360,2014-02-12 19:15:00
1:35 PM,36.7,14.4,40,30.06,10.0,NNW,4.6,-,N/A,,Clear,340,2014-02-12 19:35:00
1:55 PM,37.4,14.9,40,30.05,10.0,NNW,4.6,-,N/A,,Clear,340,2014-02-12 19:55:00
2:15 PM,38.3,12.4,35,30.04,10.0,North,3.5,-,N/A,,Clear,10,2014-02-12 20:15:00
2:35 PM,39.7,10.4,30,30.03,10.0,ENE,4.6,-,N/A,,Clear,70,2014-02-12 20:35:00
2:55 PM,39.9,8.6,28,30.02,10.0,NE,6.9,-,N/A,,Clear,40,2014-02-12 20:55:00
3:15 PM,40.3,9.0,28,30.01,10.0,NE,5.8,-,N/A,,Clear,50,2014-02-12 21:15:00
3:35 PM,40.5,7.0,25,30.01,10.0,NE,4.6,-,N/A,,Clear,50,2014-02-12 21:35:00
3:55 PM,40.3,6.3,24,30.00,10.0,NNE,4.6,-,N/A,,Clear,20,2014-02-12 21:55:00
4:15 PM,40.5,11.7,31,30.00,10.0,East,3.5,-,N/A,,Clear,80,2014-02-12 22:15:00
4:35 PM,40.3,11.1,30,30.00,10.0,East,4.6,-,N/A,,Clear,80,2014-02-12 22:35:00
4:55 PM,38.8,12.9,35,30.00,10.0,Calm,Calm,-,N/A,,Clear,0,2014-02-12 22:55:00
5:15 PM,37.8,13.1,36,30.01,10.0,ENE,4.6,-,N/A,,Clear,60,2014-02-12 23:15:00
5:35 PM,36.5,13.6,39,30.01,10.0,ENE,3.5,-,N/A,,Clear,70,2014-02-12 23:35:00
5:55 PM,35.6,13.6,41,30.01,10.0,ENE,3.5,-,N/A,,Clear,70,2014-02-12 23:55:00
6:15 PM,34.5,15.1,45,30.01,10.0,Calm,Calm,-,N/A,,Clear,0,2014-02-13 00:15:00
6:35 PM,34.0,15.6,47,30.01,10.0,North,3.5,-,N/A,,Clear,10,2014-02-13 00:35:00
6:55 PM,33.4,17.2,52,30.01,10.0,NNE,4.6,-,N/A,,Clear,30,2014-02-13 00:55:00
7:15 PM,32.2,18.3,57,30.01,10.0,NNE,5.8,-,N/A,,Clear,30,2014-02-13 01:15:00
7:35 PM,31.8,18.5,58,30.03,10.0,NNE,4.6,-,N/A,,Clear,20,2014-02-13 01:35:00
7:55 PM,30.7,18.5,60,30.03,10.0,NNE,4.6,-,N/A,,Clear,20,2014-02-13 01:55:00
8:15 PM,30.0,18.5,62,30.03,10.0,NNE,3.5,-,N/A,,Clear,20,2014-02-13 02:15:00
8:35 PM,29.1,18.9,66,30.04,10.0,North,3.5,-,N/A,,Clear,10,2014-02-13 02:35:00
8:55 PM,28.8,18.3,65,30.04,10.0,North,5.8,-,N/A,,Clear,350,2014-02-13 02:55:00
9:15 PM,28.0,17.6,65,30.04,10.0,North,4.6,-,N/A,,Clear,10,2014-02-13 03:15:00
9:35 PM,27.9,17.1,64,30.04,10.0,North,3.5,-,N/A,,Clear,10,2014-02-13 03:35:00
9:55 PM,27.3,17.1,65,30.03,10.0,Calm,Calm,-,N/A,,Clear,0,2014-02-13 03:55:00
10:15 PM,26.6,16.7,66,30.03,10.0,North,3.5,-,N/A,,Clear,350,2014-02-13 04:15:00
10:35 PM,25.7,16.7,69,30.01,10.0,North,3.5,-,N/A,,Clear,10,2014-02-13 04:35:00
10:55 PM,25.2,16.7,70,30.01,10.0,North,4.6,-,N/A,,Clear,360,2014-02-13 04:55:00
11:15 PM,23.9,15.8,71,29.99,10.0,NNE,3.5,-,N/A,,Clear,20,2014-02-13 05:15:00
11:35 PM,23.4,16.2,74,29.99,10.0,Calm,Calm,-,N/A,,Clear,0,2014-02-13 05:35:00
11:55 PM,22.1,15.4,76,29.99,10.0,Calm,Calm,-,N/A,,Clear,0,2014-02-13 05:55:00